Home   Weather   Groningen   Past weeks

Flag for Netherlands Past Weather in Groningen, Netherlands — Yesterday and Last 2 Weeks

Now
45 °F

Clear.


Feels Like: 38 °F
Forecast: 43 / 50 °F
Wind: 15 mph from Southwest

Location: Groningen Eelde Airport

Current Time: Dec 8, 2016 at 5:13:30 am

Latest Report: Dec 8, 2016 at 4:55 am


Visibility: N/A

Pressure: 30.27 "Hg

Humidity: 76%

Dew Point: 37 °F

Location of GroningenLocation

Past Weather in Groningen — Graph

°F

Groningen Temperature Yesterday

Maximum temperature yesterday: 46 °F (at 10:25 pm)
Minimum temperature yesterday: 32 °F (at 12:25 am)
Average temperature yesterday: 40 °F

High & Low Weather Summary for the Past Weeks

 TemperatureHumidityPressure
High50 °F (Nov 23, 12:55 pm)100% (Nov 23, 3:25 am)30.60 "Hg (Nov 23, 3:25 am)
Low16 °F (Dec 6, 3:25 am)62% (Dec 2, 2:25 pm)29.98 "Hg (Nov 23, 3:25 am)
Average36 °F90%30.29 "Hg
* Reported Nov 23 3:25 am — Dec 8 3:55 am, Groningen, Weather by CustomWeather, © 2016

Note: Actual official high and low records may vary slightly from our data, if they occured in-between our weather recording intervals... More about our weather records

Advertising

Groningen Weather History for the Previous 24 Hours

Scroll right to see more
 ConditionsComfort  
Time TempWeatherWind HumidityBarometerVisibility
3:55 am
Thu, Dec 8
45 °FClear.15 mph81%30.27 "HgN/A
3:25 am45 °FClear.15 mph81%30.27 "HgN/A
2:25 am45 °FClear.16 mph81%30.27 "HgN/A
1:55 am45 °FClear.16 mph81%30.27 "HgN/A
1:25 am45 °FClear.15 mph81%30.27 "HgN/A
12:55 am43 °FQuite cool.13 mph87%30.27 "HgN/A
12:25 am45 °FQuite cool.14 mph81%30.27 "HgN/A
11:55 pm
Wed, Dec 7
45 °FQuite cool.15 mph81%30.27 "HgN/A
11:25 pm45 °FQuite cool.14 mph81%30.27 "HgN/A
10:55 pm46 °FCool.15 mph82%30.27 "HgN/A
10:25 pm46 °FClear.17 mph82%30.27 "HgN/A
9:55 pm45 °FClear.16 mph87%30.27 "HgN/A
9:25 pm45 °FQuite cool.14 mph81%30.27 "HgN/A
8:55 pm45 °FClear.17 mph87%30.27 "HgN/A
8:25 pm45 °FQuite cool.15 mph87%30.27 "HgN/A
7:55 pm45 °FClear.16 mph87%30.27 "HgN/A
7:25 pm45 °FClear.14 mph87%30.27 "HgN/A
6:55 pm45 °FClear.13 mph87%30.30 "HgN/A
6:25 pm45 °FClear.14 mph81%30.27 "HgN/A
5:55 pm45 °FClear.13 mph81%30.30 "HgN/A
5:25 pm45 °FClear.13 mph81%30.30 "HgN/A
4:55 pm43 °FClear.12 mph87%30.30 "HgN/A
4:25 pm43 °FClear.12 mph87%30.30 "HgN/A
3:55 pm45 °FClear.12 mph81%30.27 "HgN/A
3:25 pm45 °FClear.12 mph81%30.27 "HgN/A
2:55 pm43 °FClear.13 mph87%30.30 "HgN/A
2:25 pm45 °FClear.14 mph81%30.30 "HgN/A
1:55 pm45 °FClear.13 mph81%30.30 "HgN/A
1:25 pm45 °FClear.13 mph81%30.30 "HgN/A
12:55 pm43 °FClear.13 mph87%30.30 "HgN/A
12:25 pm43 °FClear.10 mph81%30.30 "HgN/A
11:55 am41 °FClear.10 mph87%30.33 "HgN/A
11:25 am41 °FClear.12 mph81%30.33 "HgN/A
10:55 am39 °FClear.13 mph87%30.33 "HgN/A
10:25 am39 °FClear.12 mph87%30.33 "HgN/A
9:55 am39 °FClear.10 mph87%30.33 "HgN/A
9:25 am37 °FPassing clouds.10 mph87%30.33 "HgN/A
8:55 am37 °FClear.10 mph87%30.33 "HgN/A
8:25 am37 °FClear.12 mph87%30.33 "HgN/A
7:55 am37 °FClear.9 mph87%30.33 "HgN/A
7:25 am37 °FClear.8 mph87%30.33 "HgN/A
6:55 am37 °FClear.8 mph87%30.33 "HgN/A
6:25 am37 °FClear.8 mph87%30.33 "HgN/A
5:55 am36 °FClear.8 mph87%30.36 "Hg6 mi
5:25 am36 °FClear.9 mph87%30.36 "Hg6 mi
Weather by CustomWeather, © 2016

See weather overviewHow to use our weather pages